SCP
1 1 1 2 1 1 0 0 0 0 0 0 0 0 0 0 0 0 1 1 1 1 1 1 0 0 0 1 1 1 1 1 1 1 1 1 1 1 1 1 1 1 1 1 1 1 1 1 1
1 1 1 1 1 1 0 0 0 0 0 0 0 0 0 0 0 0 1 1 1 1 1 1 1 0 0 1 1 1 1 1 1 1 1 1 1 1 1 1 1 1 1 1 0 1 1 1 1
1 1 2 1 1 0 0 0 0 0 0 0 0 0 0 0 0 0 0 1 1 1 2 2 1 1 1 1 1 1 1 1 1 1 1 1 1 1 1 1 1 1 1 0 0 0 1 1 1
2 2 2 1 1 0 0 0 0 0 0 0 0 0 0 0 0 0 0 0 1 1 2 3 2 2 1 1 1 1 1 1 1 1 1 1 1 1 1 1 1 1 1 0 0 0 0 1 1
2 2 1 1 0 0 0 0 0 0 0 0 0 0 0 0 0 0 0 0 1 1 2 3 4 3 2 2 2 1 1 1 1 1 1 1 1 1 1 1 1 1 1 1 0 0 0 1 1
2 2 1 0 0 0 0 0 0 0 0 0 0 0 0 0 0 0 0 0 1 1 1 3 4 4 3 2 2 1 1 1 1 1 1 1 1 1 1 1 1 1 1 1 0 0 0 1 1
3 2 1 0 0 0 0 0 0 0 0 0 0 0 0 0 0 0 0 1 1 1 1 2 4 4 3 2 2 1 1 1 1 1 1 1 1 1 1 1 1 1 1 1 1 1 1 1 1
2 1 0 0 0 0 0 0 0 0 0 0 0 0 0 0 0 0 0 1 1 1 1 1 2 3 3 2 1 1 1 2 2 2 2 2 2 2 2 2 2 2 1 1 1 1 1 1 1
1 0 0 0 0 0 0 0 0 0 0 0 0 0 0 0 0 0 1 1 1 1 2 1 1 2 2 2 1 1 1 2 2 2 2 2 2 2 3 3 3 3 2 2 2 1 1 1 1
0 0 0 0 0 0 0 0 0 0 0 0 0 0 0 0 0 0 1 1 1 1 2 2 1 1 2 2 1 1 1 1 2 2 2 2 2 2 3 3 4 4 3 3 2 2 2 1 1
0 0 0 0 0 0 0 0 0 0 0 0 0 0 0 0 0 0 1 1 1 1 2 2 1 1 2 2 1 1 1 1 1 2 2 2 2 2 2 3 4 4 3 3 3 3 3 2 2
0 0 0 0 0 0 0 0 0 0 0 0 1 1 0 0 0 0 1 1 1 1 2 2 2 2 2 2 2 1 1 1 1 2 2 2 2 2 2 3 3 3 3 4 4 4 3 3 3
0 0 0 0 0 0 0 0 0 0 0 0 1 1 0 0 0 0 1 1 1 1 2 3 3 3 3 3 3 2 1 1 1 1 2 2 2 2 2 2 3 3 3 4 4 4 4 4 3
0 0 0 0 0 0 0 0 0 0 0 0 1 1 1 0 1 1 1 2 2 2 2 3 3 3 3 3 3 2 2 1 1 1 2 2 2 2 2 2 3 3 3 3 4 4 4 4 4
0 0 0 0 0 0 0 0 0 0 0 0 1 1 1 1 1 1 2 3 3 2 2 2 2 3 3 3 3 2 2 2 2 2 2 2 2 2 2 2 3 3 3 4 4 4 4 4 3
0 0 1 1 0 0 0 1 1 1 0 1 1 1 1 1 1 2 3 3 3 3 3 2 2 2 2 2 2 2 2 2 2 2 2 2 2 2 2 2 2 3 4 4 5 5 4 4 4
1 1 0 0 0 0 0 1 1 1 1 1 1 1 1 1 2 3 3 2 2 4 4 3 2 2 2 2 2 2 2 2 2 2 2 2 2 3 3 2 3 3 4 5 5 5 5 5 5
0 0 0 0 0 0 0 1 1 1 1 1 1 1 1 1 2 3 3 2 3 4 4 3 3 2 2 2 2 2 2 2 2 2 2 2 3 3 3 3 3 4 5 6 6 6 6 6 5
0 0 0 0 0 0 0 1 1 1 1 1 1 2 1 1 2 3 3 2 3 4 4 4 3 3 3 3 3 3 3 2 2 3 2 2 3 3 3 3 3 4 5 6 7 7 6 5 4
0 0 0 0 0 0 0 1 1 1 1 1 1 1 2 2 2 3 3 3 3 4 4 4 4 4 4 4 4 4 4 3 3 3 3 3 3 3 3 3 3 4 5 6 7 8 6 5 4
0 0 0 0 0 0 0 1 1 1 1 1 1 1 2 2 2 3 3 3 3 4 5 5 5 5 4 4 5 4 4 3 3 3 3 3 3 3 4 4 3 3 4 6 7 8 7 5 4
0 0 0 0 0 0 0 0 1 1 1 1 1 1 2 2 3 3 4 4 5 6 6 7 7 7 7 6 6 5 4 3 3 3 3 4 4 4 4 4 4 4 4 5 6 8 7 6 4
0 0 0 0 0 0 0 0 1 1 1 1 1 1 2 2 2 3 4 5 7 8 8 8 9 9 9 9 8 6 5 4 4 4 4 4 5 5 5 5 5 5 4 4 5 7 7 6 5
0 0 1 1 1 0 0 0 1 1 2 2 2 1 2 2 3 4 5 7 9 10 11 10 9 8 9 9 9 9 7 6 5 4 4 4 5 6 7 7 7 6 5 5 5 6 6 5 4
1 1 1 1 1 0 0 1 1 2 2 2 1 1 2 3 4 5 7 8 10 12 12 10 9 9 9 9 9 9 9 9 7 5 4 4 5 7 9 9 8 8 7 6 6 6 7 6 5
1 1 2 2 1 1 1 1 2 2 2 1 1 2 3 4 5 5 6 9 11 12 11 10 10 11 11 10 9 9 9 9 8 6 5 5 6 7 9 10 11 10 8 7 6 7 7 6 5
1 1 1 1 1 1 1 1 2 2 2 1 2 2 3 5 6 6 8 10 11 10 8 9 12 13 13 11 11 10 9 9 8 8 8 7 7 7 9 10 11 10 9 8 8 7 7 6 5
1 1 1 1 1 0 1 1 2 2 1 2 2 3 5 6 7 8 11 13 12 9 7 7 11 12 11 10 10 10 10 10 10 10 11 10 9 8 9 10 10 9 8 8 8 7 7 6 5
1 1 1 1 1 1 1 1 1 1 2 2 3 4 6 6 7 8 10 11 10 8 6 5 7 8 8 7 7 7 8 8 9 11 11 11 8 8 9 10 9 8 8 8 7 7 7 6 6
1 1 1 1 1 1 1 1 1 1 2 2 3 5 6 6 6 8 8 8 7 7 5 4 4 5 5 6 5 5 6 6 8 9 10 9 7 8 10 10 8 8 8 8 7 7 7 6 6
Wind_Speed
9 10 8 5 4 2 11 12 13 12 13 14 14 14 16 16 12 11 7 8 10 10 11 11 11 11 11 11 11 12 12 12 11 11 12 13 14 14 14 15 15 15 15 15 15 15 14 14 14
9 11 7 4 1 7 11 12 13 12 11 11 13 16 17 16 14 11 8 7 9 10 10 10 11 11 11 11 11 11 12 12 11 11 12 13 13 13 14 14 14 15 15 15 15 14 14 13 12
11 12 6 1 8 9 11 11 11 10 8 11 13 14 13 11 12 9 8 8 9 11 11 10 12 11 11 11 11 11 11 11 11 11 11 11 12 12 12 13 13 14 14 14 14 14 13 12 11
8 6 3 4 13 13 12 9 9 10 10 11 12 12 12 11 10 10 9 8 10 12 12 11 11 11 11 11 11 11 10 10 11 10 10 10 10 11 12 12 13 13 13 13 13 13 12 12 11
8 3 2 10 13 13 10 9 9 11 12 14 15 15 13 12 12 11 9 8 10 11 11 11 12 11 11 11 11 10 10 9 9 10 9 9 9 10 11 12 12 12 12 12 12 12 12 11 10
5 2 4 9 11 11 9 8 11 12 12 14 15 14 11 10 10 9 8 7 9 11 11 11 12 11 11 11 10 9 9 9 9 8 8 9 9 10 10 10 11 11 11 11 11 11 10 10 9
6 1 7 11 11 10 9 8 10 11 10 10 12 12 10 9 8 8 7 7 9 10 10 10 10 10 11 10 9 9 8 8 7 7 8 8 8 9 10 10 10 10 10 10 10 10 9 9 7
3 1 7 9 11 10 9 10 10 11 9 7 8 10 10 10 8 9 8 7 7 8 8 8 9 9 8 8 9 9 8 7 7 7 7 8 9 9 10 10 11 11 11 10 9 9 9 8 7
1 2 7 9 10 10 10 11 10 10 10 11 12 14 14 12 10 9 8 8 6 7 6 6 7 7 7 7 9 8 8 7 6 6 6 6 5 6 7 10 12 12 11 10 9 8 8 8 6
2 6 10 9 10 11 11 11 9 10 11 12 14 15 14 11 9 8 7 8 7 6 6 5 6 5 5 5 6 4 5 5 4 3 4 4 3 4 7 11 12 12 11 10 9 8 7 5 4
6 9 10 11 11 10 10 9 9 10 11 11 13 13 12 11 8 7 6 7 7 6 6 6 6 4 4 4 3 2 2 4 4 4 3 3 3 4 5 5 7 7 8 5 6 6 4 4 3
7 9 9 10 10 10 10 10 10 11 11 13 13 13 11 10 8 7 7 7 7 7 7 6 6 5 4 4 3 3 3 3 3 4 3 3 2 2 3 3 4 4 3 3 3 2 3 3 3
6 8 9 9 9 9 10 10 11 12 12 13 14 12 10 9 8 6 7 7 7 7 7 7 6 5 4 3 2 3 3 3 4 3 3 3 3 3 3 2 2 2 3 3 2 2 1 1 1
6 7 8 8 8 8 9 10 10 11 12 12 12 11 9 8 8 7 6 7 7 6 7 7 7 6 4 2 2 2 3 3 3 4 4 3 3 3 3 2 2 2 2 2 2 2 2 2 1
7 7 7 7 8 9 9 8 9 12 12 11 11 10 9 8 8 7 7 6 7 7 6 6 7 6 4 2 2 2 2 3 3 4 4 4 3 3 2 2 1 1 2 3 2 2 1 2 2
7 7 6 7 8 9 6 7 9 11 11 11 10 10 9 9 8 7 8 6 7 7 6 5 6 7 5 2 1 2 2 3 3 3 3 4 3 2 2 2 2 1 1 2 2 2 2 1 2
8 7 7 8 9 7 6 7 11 11 11 10 10 10 10 9 9 8 8 8 8 7 6 5 5 5 5 4 2 2 2 2 2 3 3 3 3 3 2 2 2 1 1 1 1 2 2 2 2
6 6 7 8 9 7 7 8 13 12 11 11 11 10 10 10 9 10 9 9 8 8 7 6 5 4 4 3 2 2 2 2 2 2 3 3 2 3 2 2 2 1 1 1 1 2 1 1 1
7 6 5 4 6 6 6 8 11 12 11 10 11 10 10 10 11 10 9 10 9 8 7 6 5 4 2 2 2 2 2 2 2 3 3 3 3 3 2 1 2 2 2 2 1 1 2 1 2
8 7 6 5 5 4 5 6 8 11 11 10 11 11 11 11 11 11 10 10 10 9 8 7 5 5 4 2 1 1 2 2 2 3 3 3 2 2 2 2 1 2 2 2 1 1 1 1 2
10 9 5 5 5 6 6 6 8 10 10 10 10 11 12 12 11 11 10 10 10 10 9 8 6 5 4 3 2 2 2 1 2 3 2 2 2 2 2 2 1 1 1 1 1 1 1 1 1
8 8 8 7 7 6 7 5 9 11 10 11 11 12 12 12 12 11 10 9 10 11 10 8 7 6 4 3 2 3 3 3 3 2 2 3 2 2 2 2 1 1 1 1 1 1 1 1 1
9 10 9 8 7 7 8 6 7 9 10 11 11 12 13 12 13 12 11 10 9 10 10 9 8 6 5 4 3 2 2 2 2 2 3 2 2 1 2 2 2 1 1 1 0 1 1 0 1
9 10 9 9 9 9 10 8 5 8 10 11 11 12 13 13 13 13 12 10 9 9 10 9 8 7 6 5 4 3 2 2 2 2 2 2 2 2 2 3 2 2 1 1 1 1 1 1 0
10 8 6 8 8 8 7 7 4 8 9 9 11 11 12 12 13 13 13 12 10 9 9 9 9 7 6 6 4 4 3 3 2 2 2 2 1 2 2 2 2 1 1 2 2 2 1 1 1
11 11 8 8 7 5 5 5 3 6 9 10 10 11 11 12 12 12 13 12 11 10 9 10 10 8 7 6 5 4 4 3 2 2 1 1 1 1 2 3 2 2 1 1 1 1 2 1 1
13 13 13 11 9 6 4 3 3 6 8 10 11 11 12 11 12 12 13 12 12 11 9 10 10 9 8 7 6 4 4 2 2 2 2 1 1 2 2 2 2 2 1 1 1 1 1 1 1
14 13 9 9 7 6 7 6 4 6 7 9 11 10 10 11 11 11 11 11 11 10 9 9 10 9 8 7 6 6 5 4 3 2 2 2 1 2 2 1 1 1 1 1 1 1 1 1 1
13 13 10 7 7 8 6 3 4 6 7 8 10 10 10 11 10 11 10 11 11 11 11 10 10 9 8 7 6 5 5 5 4 3 2 2 2 2 2 1 1 1 1 1 1 2 1 1 1
13 13 12 8 7 8 6 2 2 6 7 6 8 10 10 9 9 10 10 10 10 10 11 10 10 9 8 7 6 6 5 5 5 4 3 3 3 2 2 2 1 1 2 1 1 1 1 1 1
Wind_Direction
196 211 217 238 247 72 67 67 66 62 59 55 58 64 59 53 62 85 98 88 91 94 98 94 87 84 82 81 81 83 82 83 85 88 97 105 107 109 110 112 115 115 115 116 117 117 118 117 119
214 219 222 243 9 73 65 66 67 65 69 70 65 68 69 66 75 90 95 93 93 96 96 93 93 88 86 84 84 84 84 83 84 89 99 107 109 110 111 114 118 118 118 118 119 120 121 120 120
239 244 250 203 58 69 76 73 79 78 75 75 71 61 58 73 80 92 103 106 100 98 96 99 101 95 91 88 87 87 87 87 87 90 100 109 112 113 113 116 120 120 120 120 120 122 123 124 124
241 233 234 75 72 71 78 83 89 89 78 77 83 75 67 73 88 99 106 104 102 99 101 104 106 99 95 93 91 90 89 89 91 93 99 109 116 119 118 120 121 122 123 123 124 125 127 129 129
237 255 86 77 78 78 75 77 81 79 77 75 81 88 84 82 92 100 104 106 103 103 106 110 110 106 103 100 97 96 96 94 95 96 102 112 117 124 123 123 124 126 127 129 130 130 130 131 133
250 211 96 85 85 85 80 78 83 84 89 94 97 96 91 97 97 100 101 103 104 108 111 117 117 115 111 109 107 104 101 98 98 100 106 113 122 129 132 130 129 130 133 134 133 132 133 134 135
266 353 92 99 98 90 84 80 84 89 85 90 103 103 110 108 105 106 101 97 102 108 111 120 129 126 119 116 116 114 111 108 105 106 111 117 128 137 139 138 137 136 137 138 138 136 137 135 136
250 50 84 94 100 96 94 85 84 86 82 92 105 109 123 123 121 114 109 95 92 102 109 115 125 135 134 130 130 128 125 123 121 121 124 127 133 143 147 146 144 140 139 141 140 141 143 140 140
246 91 81 87 101 107 108 99 94 94 88 76 74 100 121 129 124 118 118 109 100 98 103 113 120 130 135 135 136 144 140 140 140 139 144 146 145 145 150 147 145 145 147 147 147 151 150 149 155
115 82 77 89 103 114 115 112 116 110 100 92 91 102 119 126 125 122 121 119 116 113 110 103 104 111 122 123 130 143 142 134 142 133 142 147 141 136 134 140 147 149 152 154 159 161 161 167 173
80 87 95 102 108 116 116 117 114 112 110 114 116 120 126 128 125 123 124 119 114 112 102 98 92 76 89 100 114 113 116 122 128 110 108 113 116 124 132 139 146 154 158 164 163 171 181 179 171
90 93 100 107 115 120 118 112 100 92 104 115 123 131 134 133 132 130 123 122 122 118 110 103 100 87 66 73 88 104 105 112 107 115 99 93 96 101 109 121 139 149 151 156 156 163 165 170 169
106 107 106 113 118 112 113 108 105 105 110 117 128 134 139 138 138 134 129 127 124 121 116 109 101 90 75 59 53 79 90 103 106 100 97 89 92 95 94 97 105 129 139 142 139 140 140 132 138
118 118 119 124 125 128 121 118 120 119 125 129 135 140 147 142 141 139 136 130 129 125 119 117 116 111 106 102 90 76 98 109 107 102 102 93 91 94 103 104 110 128 128 125 137 158 153 140 123
144 141 144 150 151 146 137 131 130 135 138 139 143 147 148 145 148 147 140 136 131 128 123 125 127 120 118 113 115 116 110 106 105 108 111 111 106 106 115 116 111 111 128 138 142 153 162 162 157
186 179 168 166 170 165 162 134 134 147 149 152 152 152 153 155 156 148 139 136 128 128 125 129 129 128 128 114 84 80 90 102 111 115 117 118 119 129 127 118 116 131 139 137 151 162 161 154 152
212 193 171 178 180 171 168 139 152 166 159 158 156 158 159 159 158 146 145 142 136 133 128 121 112 125 131 132 126 115 94 88 102 105 111 125 134 134 127 116 124 162 138 126 161 128 142 156 154
206 190 179 189 171 177 169 156 163 172 170 164 161 162 161 161 157 151 153 147 142 139 134 130 128 122 135 137 128 107 103 110 111 106 114 123 126 128 129 148 145 151 118 102 85 108 133 151 157
225 214 193 183 168 182 173 165 170 171 175 170 166 164 165 164 158 154 156 151 147 144 143 142 145 139 140 133 145 147 143 135 129 131 124 119 114 121 124 111 128 131 125 122 122 132 150 163 135
234 227 197 168 175 191 176 178 176 175 178 173 170 167 170 166 160 157 161 160 156 152 151 150 154 151 155 148 141 135 119 116 119 101 98 104 109 114 131 123 119 127 122 117 132 147 161 179 155
225 229 218 198 207 221 197 193 187 179 179 174 174 170 169 168 166 163 164 166 161 159 160 162 159 158 161 158 156 142 126 109 96 107 111 104 102 97 74 89 90 89 113 143 172 176 190 212 196
229 224 225 212 218 230 223 208 191 182 180 179 177 174 171 169 166 165 166 167 165 161 160 154 154 156 152 155 163 165 149 143 133 137 135 130 120 118 120 115 115 109 94 136 188 160 210 198 228
233 231 228 221 230 250 244 237 193 182 185 181 180 175 172 170 167 168 168 166 164 159 155 155 153 154 154 163 169 163 156 150 142 139 139 132 125 136 136 129 134 133 146 136 108 109 164 220 239
231 241 241 235 237 238 242 241 195 193 188 183 179 177 172 167 166 163 160 157 159 156 153 152 149 156 160 167 167 163 162 150 133 141 145 152 153 155 154 150 144 144 155 156 149 168 190 213 324
227 236 237 238 233 235 233 234 184 187 173 174 177 172 165 163 162 160 158 158 160 157 153 151 152 157 164 168 172 170 167 169 171 171 168 172 155 133 142 131 125 135 163 175 172 173 192 202 212
225 231 233 244 241 241 229 233 183 176 164 169 167 160 164 162 159 160 161 161 161 162 158 155 155 160 167 168 165 171 172 184 175 168 174 147 128 104 117 121 130 140 172 186 158 167 178 156 203
224 229 238 249 254 252 234 205 197 164 162 164 158 161 167 165 161 163 163 162 162 165 164 160 156 161 167 170 165 169 157 158 153 143 155 151 146 137 117 124 131 140 157 153 152 161 143 123 169
233 237 235 243 255 253 245 209 200 172 167 168 162 165 160 154 159 160 160 158 162 162 161 161 160 163 167 173 177 170 163 165 162 162 135 115 104 99 104 113 113 125 142 142 151 145 132 145 139
226 235 243 252 259 249 242 223 170 175 172 172 166 163 155 157 160 158 160 162 166 167 165 165 161 161 169 173 165 161 161 164 166 172 163 146 138 134 139 134 133 146 156 164 156 151 143 143 129
237 235 236 238 247 260 265 232 200 175 166 158 164 153 150 155 156 156 157 159 165 170 166 165 164 165 167 163 161 165 165 168 170 169 156 144 153 153 143 139 142 146 118 107 124 130 122 129 129